This is the latest recevied weather packets stored in our database for station/object K5NWZ. If no packets are shown the sender has not sent any weather packets the latest 10 day(s).
| Time | Temp. | Humidity | Pressure | Rain* | Wind** | Luminosity | Snow |
|---|---|---|---|---|---|---|---|
| 1777742374 | 17.22° C | 19% | 1029.8 hPa | 0 mm | - | 732 W/m² | - |
| 1777742070 | 17.22° C | 20% | 1029.8 hPa | 0 mm | - | 725 W/m² | - |
| 1777741768 | 17.22° C | 20% | 1029.7 hPa | 0 mm | - | 717 W/m² | - |
| 1777741464 | 17.78° C | 19% | 1030.1 hPa | 0 mm | - | 709 W/m² | - |
| 1777741160 | 16.67° C | 20% | 1029.9 hPa | 0 mm | - | 700 W/m² | - |
| 1777740857 | 17.22° C | 20% | 1030.2 hPa | 0 mm | - | 691 W/m² | - |
| 1777740554 | 17.22° C | 19% | 1030.1 hPa | 0 mm | - | 682 W/m² | - |
| 1777740251 | 16.67° C | 21% | 1030.1 hPa | 0 mm | - | 673 W/m² | - |
| 1777739947 | 16.67° C | 21% | 1029.9 hPa | 0 mm | - | 662 W/m² | - |
| 1777739643 | 17.22° C | 23% | 1030.4 hPa | 0 mm | - | 651 W/m² | - |
| 1777739341 | 17.78° C | 23% | 1030.1 hPa | 0 mm | - | 640 W/m² | - |
| 1777739037 | 16.11° C | 25% | 1030.3 hPa | 0 mm | - | 629 W/m² | - |
| 1777738735 | 16.67° C | 25% | 1030.5 hPa | 0 mm | - | 617 W/m² | - |
| 1777738431 | 16.67° C | 24% | 1030.4 hPa | 0 mm | - | 606 W/m² | - |
| 1777738129 | 16.67° C | 26% | 1030.3 hPa | 0 mm | - | 592 W/m² | - |
| 1777737827 | 15.56° C | 27% | 1030.4 hPa | 0 mm | - | 581 W/m² | - |
| 1777737525 | 15.56° C | 28% | 1030.5 hPa | 0 mm | - | 571 W/m² | - |
| 1777737223 | 15.56° C | 29% | 1030.4 hPa | 0 mm | - | 556 W/m² | - |
| 1777736919 | 14.44° C | 29% | 1030.8 hPa | 0 mm | - | 541 W/m² | - |
| 1777736310 | 14.44° C | 31% | 1030.5 hPa | 0 mm | - | 514 W/m² | - |
| 1777736007 | 13.89° C | 33% | 1030.6 hPa | 0 mm | - | 498 W/m² | - |
| 1777735705 | 14.44° C | 32% | 1030.6 hPa | 0 mm | - | 484 W/m² | - |
| 1777735402 | 13.89° C | 32% | 1030.6 hPa | 0 mm | - | 470 W/m² | - |
| 1777735100 | 12.78° C | 34% | 1030.9 hPa | 0 mm | - | 456 W/m² | - |
| 1777734796 | 12.78° C | 35% | 1031 hPa | 0 mm | - | 440 W/m² | - |
* Rain latest hour (hover to see other rain measurements)
** Current wind speed in m/s (hover to see current wind gust speed)